Temperature
0 0 0 0 0 0 1 1 1 1 1 1 1 1 1 1 1 1 1 1 1 1 1 1 1 1 1 1 1 0 0 -0 -0 0 1 1 1 1 1 1 1 1 2
-0 -0 -0 -0 -0 -0 -0 -0 0 0 0 0 0 0 0 1 1 1 1 1 1 1 1 1 0 0 0 0 -0 -0 -0 -1 -1 -1 -0 -0 -0 -0 0 0 0 1 1
-1 -1 -1 -1 -1 -1 -1 -1 -1 -1 -0 -0 -0 -0 -0 -0 -0 -0 -0 -0 -0 -0 -0 -0 -0 -0 -0 -0 -1 -1 -1 -1 -1 -2 -1 -1 -1 -1 -1 -0 -0 -0 -0
-2 -2 -1 -1 -1 -1 -1 -1 -1 -1 -1 -1 -1 -1 -1 -1 -1 -1 -1 -1 -1 -1 -1 -1 -1 -1 -1 -1 -1 -1 -2 -2 -2 -2 -2 -2 -2 -2 -2 -1 -1 -1 -1
-2 -2 -2 -2 -2 -2 -2 -2 -2 -2 -2 -2 -2 -2 -2 -2 -2 -2 -2 -2 -2 -2 -2 -2 -2 -2 -2 -2 -2 -2 -3 -3 -3 -3 -3 -3 -3 -3 -3 -3 -3 -2 -2
-3 -3 -3 -3 -3 -3 -3 -3 -3 -3 -3 -3 -3 -3 -3 -3 -3 -3 -3 -3 -3 -3 -3 -3 -3 -3 -3 -3 -3 -3 -4 -4 -4 -4 -4 -4 -3 -3 -3 -3 -3 -3 -3
-3 -3 -3 -3 -3 -3 -3 -3 -3 -3 -4 -4 -4 -4 -3 -3 -3 -3 -3 -4 -4 -4 -4 -3 -3 -4 -4 -4 -4 -4 -4 -4 -5 -5 -5 -4 -4 -4 -4 -4 -4 -4 -4
-4 -4 -4 -4 -4 -4 -4 -4 -4 -4 -4 -4 -4 -4 -4 -4 -4 -4 -4 -4 -4 -4 -4 -4 -4 -4 -5 -5 -5 -5 -5 -5 -5 -5 -5 -5 -5 -5 -5 -5 -5 -5 -5
-5 -5 -5 -5 -5 -5 -5 -5 -5 -5 -5 -5 -5 -5 -5 -5 -5 -5 -5 -5 -5 -5 -5 -5 -5 -5 -5 -6 -6 -6 -6 -6 -6 -6 -6 -6 -6 -6 -6 -6 -6 -6 -6
-5 -5 -5 -5 -5 -5 -5 -5 -5 -6 -6 -6 -6 -6 -6 -6 -6 -6 -6 -6 -6 -6 -6 -6 -6 -6 -6 -7 -7 -7 -7 -6 -6 -6 -6 -6 -7 -7 -6 -7 -6 -7 -7
-6 -6 -6 -6 -6 -6 -6 -6 -6 -6 -6 -6 -6 -6 -6 -6 -6 -6 -7 -7 -7 -7 -7 -7 -7 -7 -7 -7 -7 -8 -7 -7 -8 -7 -7 -7 -7 -7 -7 -7 -7 -7 -7
-7 -7 -7 -7 -7 -7 -6 -6 -7 -7 -7 -7 -7 -7 -7 -7 -7 -7 -7 -7 -8 -8 -8 -8 -8 -8 -8 -8 -8 -8 -8 -8 -8 -8 -8 -8 -8 -8 -8 -7 -7 -8 -8
-7 -7 -7 -7 -7 -7 -7 -7 -7 -8 -8 -8 -8 -8 -8 -8 -8 -8 -8 -8 -8 -8 -8 -8 -9 -9 -8 -9 -9 -9 -9 -9 -9 -9 -9 -9 -9 -9 -9 -8 -8 -8 -8
-8 -8 -8 -8 -8 -8 -8 -8 -8 -8 -8 -8 -8 -8 -9 -9 -8 -8 -9 -9 -9 -9 -9 -9 -9 -9 -9 -9 -9 -9 -9 -9 -9 -10 -10 -9 -9 -9 -9 -9 -9 -9 -9
-9 -9 -9 -9 -9 -9 -9 -9 -9 -8 -9 -9 -9 -9 -9 -9 -9 -9 -9 -9 -9 -9 -9 -9 -9 -9 -9 -10 -10 -10 -10 -10 -10 -10 -10 -10 -10 -10 -10 -10 -10 -10 -10
-10 -10 -10 -10 -10 -10 -9 -9 -9 -9 -9 -9 -9 -9 -9 -9 -9 -10 -10 -10 -10 -10 -10 -10 -10 -10 -10 -10 -10 -10 -10 -10 -10 -10 -10 -10 -10 -10 -10 -10 -10 -10 -10
-10 -10 -10 -10 -10 -10 -10 -10 -10 -10 -10 -10 -10 -10 -10 -10 -10 -10 -10 -10 -10 -10 -10 -10 -10 -11 -11 -11 -11 -11 -11 -11 -11 -11 -11 -11 -11 -11 -11 -11 -11 -11 -10
-11 -11 -11 -11 -11 -11 -11 -11 -11 -11 -11 -10 -10 -10 -10 -11 -11 -11 -11 -11 -11 -11 -11 -11 -11 -11 -11 -11 -11 -11 -11 -11 -11 -11 -11 -11 -11 -11 -11 -11 -11 -11 -11
-12 -12 -12 -12 -11 -11 -11 -11 -11 -11 -11 -11 -11 -11 -11 -11 -11 -11 -11 -11 -11 -11 -11 -11 -12 -12 -12 -12 -12 -12 -12 -11 -11 -11 -11 -11 -11 -12 -12 -11 -11 -11 -11
-12 -12 -12 -12 -12 -12 -12 -12 -12 -12 -12 -12 -12 -12 -12 -12 -12 -12 -12 -12 -12 -12 -12 -12 -12 -12 -12 -12 -12 -12 -12 -12 -12 -12 -12 -12 -12 -12 -12 -12 -12 -12 -12
-13 -13 -13 -13 -13 -12 -12 -12 -12 -12 -12 -12 -12 -12 -12 -12 -12 -12 -12 -12 -12 -12 -12 -13 -12 -12 -12 -12 -12 -12 -12 -12 -12 -12 -12 -12 -12 -12 -12 -12 -12 -12 -12
-13 -13 -13 -13 -13 -13 -13 -13 -13 -13 -13 -13 -13 -13 -13 -13 -13 -13 -13 -13 -13 -13 -13 -13 -13 -13 -13 -13 -13 -13 -12 -12 -12 -12 -12 -12 -12 -12 -12 -12 -12 -12 -12
-14 -14 -14 -14 -14 -13 -13 -13 -13 -13 -13 -13 -13 -13 -13 -13 -13 -13 -13 -13 -13 -13 -13 -13 -13 -13 -13 -13 -13 -13 -13 -13 -13 -13 -13 -13 -13 -13 -13 -13 -13 -13 -12
-14 -14 -14 -14 -14 -14 -14 -14 -14 -14 -14 -14 -14 -14 -14 -14 -14 -14 -14 -13 -13 -13 -13 -13 -13 -13 -13 -13 -13 -13 -13 -13 -13 -13 -13 -13 -13 -13 -13 -13 -13 -13 -13
-14 -14 -14 -14 -14 -14 -14 -14 -14 -14 -14 -14 -14 -14 -14 -14 -14 -14 -14 -14 -14 -14 -14 -14 -14 -14 -13 -13 -13 -13 -13 -13 -13 -13 -13 -13 -13 -13 -13 -13 -13 -13 -13
-14 -15 -15 -15 -15 -14 -15 -15 -14 -14 -14 -14 -14 -14 -14 -14 -14 -14 -14 -14 -14 -14 -14 -14 -14 -14 -14 -13 -13 -13 -13 -13 -13 -13 -13 -13 -13 -13 -13 -13 -13 -13 -13
Wind_Speed
3 3 3 3 3 3 3 3 3 2 3 3 3 3 3 3 3 3 2 2 2 1 1 2 2 2 1 1 1 1 2 2 5 5 3 4 4 5 8 9 10 10 11
3 3 3 3 4 4 4 3 3 3 3 3 3 3 3 3 3 3 3 2 3 2 2 2 2 2 2 2 2 3 3 3 4 7 5 3 4 5 6 7 8 9 10
2 2 2 3 3 4 4 4 3 3 3 3 3 4 4 3 3 3 3 3 3 3 3 3 3 3 3 3 3 3 3 3 3 5 6 4 4 4 5 6 7 7 9
2 2 3 3 3 3 3 3 4 4 4 4 4 4 3 3 3 3 3 3 3 3 3 3 4 4 4 4 4 4 3 3 4 5 6 5 5 4 3 5 6 5 6
2 3 3 2 3 3 3 3 3 3 4 3 3 3 3 3 3 3 3 3 3 3 3 4 4 5 6 6 5 4 4 4 4 5 6 5 5 4 5 5 7 6 6
2 3 2 2 2 3 3 3 3 3 3 3 3 4 4 3 5 5 4 3 3 4 4 4 4 5 6 8 9 8 7 6 6 5 6 7 7 6 5 6 6 7 6
3 3 2 2 3 3 3 3 3 3 3 3 3 3 4 4 6 6 6 3 4 4 4 4 5 5 6 5 7 9 9 10 10 8 8 9 8 6 6 7 7 7 8
3 3 3 3 3 3 3 3 3 3 3 3 3 4 4 4 6 6 5 3 3 4 5 5 5 5 6 5 5 5 6 6 8 7 7 8 8 7 7 8 9 9 9
3 3 3 3 3 3 3 3 3 3 3 3 3 4 4 4 6 6 5 3 3 4 5 5 5 5 8 8 6 6 6 6 9 10 11 12 13 13 11 6 6 7 9
4 3 3 3 4 4 4 3 3 3 3 3 3 3 4 4 6 6 6 3 4 4 4 5 7 8 9 9 6 5 7 7 6 6 7 8 9 10 11 8 6 7 8
3 2 2 3 3 4 3 3 3 2 2 2 3 3 3 4 5 6 7 4 4 4 4 4 5 8 10 10 8 6 9 8 6 5 5 5 5 5 6 7 7 7 8
1 1 2 2 2 2 3 2 3 3 2 2 2 3 3 3 4 6 7 7 6 5 5 4 5 8 9 10 8 8 11 9 5 5 5 6 6 6 5 6 8 9 10
1 1 1 1 1 2 3 3 3 3 3 3 3 3 3 2 3 6 7 7 7 5 4 6 7 8 8 7 8 10 8 5 5 6 6 6 6 6 5 5 7 8 10
1 1 1 1 1 1 2 3 3 3 3 3 4 3 3 3 3 3 3 4 5 5 4 6 8 8 7 7 6 6 4 5 6 6 6 6 5 5 6 5 6 6 7
1 1 1 1 1 1 1 2 3 4 5 5 4 4 4 4 5 6 4 4 3 4 4 3 3 3 3 3 4 4 4 4 5 5 6 6 6 6 6 5 6 6 7
1 1 1 1 1 1 1 1 3 3 5 6 6 6 5 7 8 8 8 8 7 7 4 3 4 4 4 4 4 4 4 4 5 5 6 6 6 6 6 6 6 6 8
2 2 1 1 1 1 1 1 2 3 3 4 5 6 7 7 7 7 7 7 7 6 3 3 4 4 4 4 5 5 5 5 5 5 6 6 6 6 6 7 6 7 8
1 2 2 2 2 2 2 2 2 2 2 3 4 5 6 6 6 6 6 5 4 3 3 4 4 4 5 5 5 5 5 5 5 5 6 6 6 7 7 7 7 8 8
1 1 1 2 2 2 2 2 2 3 3 3 3 3 5 5 5 6 5 3 3 4 4 4 4 4 5 5 5 5 6 6 6 6 6 6 6 7 7 8 8 10 10
1 3 2 1 1 1 1 2 2 2 3 3 3 3 3 3 3 3 3 3 3 4 4 4 4 5 5 5 5 6 6 6 6 6 7 7 6 7 8 9 8 8 8
1 2 3 2 1 1 2 2 2 2 2 3 3 4 5 3 3 3 3 3 3 4 4 4 4 5 5 5 5 6 7 6 6 6 7 7 7 7 7 8 8 8 8
1 1 1 2 2 2 2 2 2 2 2 3 3 4 6 3 3 3 4 4 4 4 4 4 5 5 5 6 6 6 7 7 7 7 7 7 7 7 8 8 8 8 8
1 1 1 1 2 3 2 2 2 2 3 3 4 4 4 3 3 4 4 4 4 5 5 5 6 6 7 8 8 8 7 8 8 8 8 8 8 8 8 8 9 9 9
1 2 2 2 2 2 2 2 2 3 3 4 4 4 4 4 4 5 5 5 5 5 6 7 7 9 10 10 9 10 11 12 12 11 11 9 9 8 8 8 9 10 10
1 2 2 2 2 2 2 3 3 3 4 4 4 4 4 4 5 5 5 5 5 6 7 8 8 9 11 12 12 12 14 15 15 13 11 9 9 9 9 9 9 9 9
2 2 2 2 2 3 3 3 4 4 4 4 4 4 5 5 5 5 5 5 5 6 7 8 10 11 12 12 13 14 15 15 16 15 12 9 8 8 8 8 9 9 9
Wind_Direction
165 167 165 172 166 160 164 175 175 166 160 167 177 175 171 169 160 161 169 162 176 197 206 201 224 224 222 230 233 233 240 239 260 278 274 292 293 299 311 307 304 304 304
172 164 166 168 170 173 177 184 173 177 176 177 181 186 195 191 178 182 189 195 200 212 223 225 239 242 234 231 233 237 242 244 252 276 284 284 278 286 293 296 302 301 296
160 163 170 173 179 189 189 186 181 183 185 185 187 196 202 203 199 201 200 208 216 224 227 231 239 232 246 251 249 245 248 258 254 266 282 286 284 288 295 295 296 297 296
171 178 191 197 195 194 189 184 184 183 188 192 196 205 209 210 211 214 210 218 224 236 240 238 239 233 239 245 254 249 250 256 259 264 276 285 285 286 286 294 300 294 295
186 194 210 209 194 182 178 182 183 185 195 193 192 201 209 212 213 211 214 220 222 237 248 249 251 252 255 255 257 249 248 257 263 267 274 284 286 292 288 290 292 299 289
207 214 212 199 193 191 185 180 180 186 191 192 199 200 208 228 228 230 235 225 233 239 250 257 260 258 259 266 268 266 256 253 256 263 273 272 276 278 287 290 294 299 293
218 224 215 203 202 199 189 182 189 193 191 204 214 207 217 233 234 235 241 239 235 243 247 254 263 261 269 268 273 276 272 263 257 257 262 266 272 274 284 287 283 283 280
222 225 221 213 212 199 188 194 197 198 198 211 225 218 221 236 237 238 243 245 239 242 244 245 250 254 256 259 261 268 270 271 269 266 258 264 268 273 269 274 281 285 280
229 228 220 210 206 196 199 204 202 201 213 220 227 220 218 236 242 243 247 232 242 246 249 249 247 248 256 260 263 267 275 278 279 272 269 270 272 275 275 279 280 286 288
239 234 221 210 205 204 204 206 208 211 220 226 237 230 226 233 242 244 247 232 240 250 256 254 253 253 259 263 259 257 268 275 277 282 279 278 276 275 274 268 266 274 283
254 240 224 215 212 208 203 207 194 204 207 223 242 251 238 240 244 244 246 241 235 243 256 262 258 258 263 265 266 260 266 275 274 272 275 276 276 273 274 268 260 260 267
260 235 230 223 220 207 185 197 195 187 200 224 242 259 253 250 254 249 248 251 253 251 254 260 260 263 267 269 272 270 274 280 275 272 272 273 274 273 275 272 266 263 262
279 242 239 234 225 210 194 196 200 194 202 221 226 243 258 260 253 255 256 258 261 267 262 261 267 272 276 277 275 274 274 271 267 268 270 273 273 272 277 281 281 277 275
255 267 252 231 237 223 215 206 205 209 213 222 230 238 248 257 258 255 253 259 260 266 264 263 270 272 275 278 284 284 271 262 262 265 271 275 277 275 272 273 276 279 280
256 260 256 247 225 228 240 226 227 231 227 228 232 232 235 249 253 257 260 259 249 250 260 267 267 269 265 268 271 270 269 270 271 266 266 271 276 279 278 274 271 273 272
264 267 256 253 242 228 241 308 307 274 271 266 258 254 256 258 264 264 265 267 268 263 271 265 267 265 265 268 272 275 273 270 270 270 268 268 270 274 280 280 274 268 270
248 257 252 249 243 239 233 239 287 319 308 288 276 271 269 267 269 272 273 275 272 271 271 262 265 268 269 268 268 269 272 272 271 269 270 269 269 270 272 275 277 276 274
271 273 267 242 239 237 235 238 241 252 283 295 297 292 284 279 277 278 279 281 273 274 263 260 264 266 268 268 268 270 272 274 271 270 269 269 270 271 271 271 272 273 275
283 266 259 249 241 238 237 239 242 249 259 277 292 297 303 300 294 290 287 265 258 262 265 263 265 267 269 270 271 272 272 272 271 269 269 268 268 269 271 270 270 273 274
289 304 304 264 248 250 247 245 247 250 258 268 279 288 291 293 287 290 289 274 264 266 267 269 272 271 271 273 272 272 273 272 271 270 269 268 267 265 266 268 268 269 270
282 294 310 302 266 255 251 250 252 254 260 272 281 288 293 283 277 277 277 274 268 269 273 276 277 276 276 275 272 269 269 271 270 270 269 269 268 267 265 265 267 268 269
272 270 265 265 269 266 264 257 257 260 265 273 282 290 297 296 279 276 276 277 274 271 268 270 273 270 266 265 267 270 269 270 270 269 269 269 268 267 266 265 265 266 266
267 266 268 275 273 283 295 282 265 262 267 271 276 282 286 282 276 274 275 278 278 275 271 266 268 271 269 267 262 257 262 266 265 263 266 268 267 266 266 265 265 266 264
258 252 260 273 274 268 272 275 273 272 272 273 274 275 276 277 279 278 278 278 278 275 273 268 266 268 272 274 272 268 265 267 267 261 257 259 264 266 265 265 266 266 266
256 258 257 260 265 267 270 273 275 276 276 276 276 278 279 279 280 281 278 278 276 276 276 275 271 271 272 275 275 276 278 279 277 271 261 256 261 263 264 265 266 268 267
268 264 262 261 262 265 268 272 273 274 274 275 276 276 278 281 283 285 283 280 282 282 280 279 276 277 279 279 279 282 285 286 285 282 274 260 262 265 265 264 265 265 267
Height
1476 1478 1480 1482 1484 1487 1489 1492 1494 1496 1498 1500 1502 1504 1506 1508 1509 1511 1512 1513 1515 1516 1517 1518 1519 1520 1521 1522 1522 1522 1522 1522 1520 1519 1520 1520 1520 1520 1519 1519 1518 1517 1517
1473 1475 1477 1479 1481 1483 1485 1487 1490 1492 1494 1496 1498 1500 1502 1503 1504 1506 1507 1509 1510 1511 1512 1513 1514 1515 1516 1516 1517 1517 1517 1517 1516 1514 1514 1514 1515 1515 1514 1513 1513 1512 1511
1469 1471 1473 1475 1477 1479 1481 1483 1485 1487 1489 1491 1493 1495 1497 1498 1500 1501 1502 1504 1505 1506 1507 1508 1509 1509 1510 1511 1511 1511 1512 1512 1511 1510 1508 1509 1508 1509 1508 1507 1507 1506 1505
1466 1467 1469 1471 1473 1474 1476 1478 1480 1482 1484 1486 1488 1490 1491 1493 1494 1496 1497 1499 1500 1501 1502 1503 1503 1504 1505 1505 1505 1506 1506 1506 1506 1505 1504 1503 1503 1503 1502 1501 1499 1499 1498
1463 1464 1465 1467 1469 1471 1472 1474 1476 1478 1479 1481 1483 1484 1486 1487 1489 1490 1491 1493 1494 1495 1496 1497 1498 1498 1499 1500 1500 1500 1500 1500 1500 1500 1499 1498 1497 1497 1497 1495 1493 1492 1491
1459 1460 1462 1463 1465 1466 1468 1470 1471 1473 1474 1476 1478 1479 1481 1482 1484 1485 1486 1487 1488 1489 1490 1491 1492 1493 1493 1494 1494 1495 1495 1495 1494 1494 1493 1492 1492 1492 1491 1490 1488 1486 1484
1455 1456 1457 1459 1460 1462 1464 1465 1467 1468 1469 1471 1473 1474 1475 1477 1479 1480 1481 1482 1483 1484 1485 1485 1486 1486 1487 1487 1488 1488 1488 1489 1489 1489 1487 1487 1486 1486 1485 1484 1483 1481 1479
1452 1453 1454 1455 1456 1458 1459 1461 1462 1464 1465 1466 1468 1469 1471 1472 1473 1474 1476 1477 1477 1478 1479 1480 1480 1480 1481 1481 1481 1481 1481 1482 1482 1482 1481 1480 1481 1480 1480 1479 1477 1475 1472
1448 1449 1450 1451 1452 1454 1455 1457 1458 1459 1460 1462 1463 1465 1466 1467 1468 1469 1470 1471 1472 1473 1474 1474 1474 1474 1475 1475 1475 1475 1475 1475 1476 1476 1475 1474 1474 1474 1474 1473 1471 1469 1466
1445 1445 1446 1448 1449 1450 1451 1453 1454 1455 1456 1458 1459 1460 1461 1462 1463 1464 1465 1466 1467 1467 1468 1468 1469 1469 1469 1470 1470 1470 1469 1468 1469 1468 1468 1467 1467 1467 1467 1467 1465 1464 1461
1442 1442 1443 1444 1446 1447 1448 1449 1450 1451 1452 1453 1454 1456 1457 1457 1458 1459 1461 1462 1462 1462 1462 1462 1463 1464 1464 1464 1464 1464 1464 1464 1463 1462 1461 1460 1460 1460 1460 1459 1459 1458 1456
1439 1439 1440 1441 1442 1443 1444 1445 1446 1447 1448 1449 1450 1451 1452 1453 1454 1455 1456 1457 1458 1458 1457 1458 1458 1458 1458 1459 1459 1458 1458 1458 1457 1456 1455 1454 1453 1453 1453 1452 1452 1451 1449
1436 1436 1437 1438 1439 1440 1440 1441 1442 1443 1444 1444 1445 1446 1447 1448 1449 1450 1451 1452 1453 1453 1453 1453 1453 1453 1453 1453 1453 1453 1452 1452 1451 1450 1448 1448 1447 1447 1446 1445 1444 1443 1442
1433 1433 1434 1434 1435 1436 1437 1438 1438 1439 1440 1440 1441 1442 1443 1444 1445 1446 1446 1447 1448 1448 1448 1448 1448 1448 1448 1448 1447 1447 1446 1446 1445 1444 1443 1442 1441 1440 1439 1438 1437 1436 1434
1430 1431 1431 1431 1432 1432 1433 1434 1435 1436 1436 1437 1437 1438 1439 1439 1440 1442 1442 1443 1443 1444 1444 1443 1443 1443 1442 1441 1441 1441 1440 1440 1439 1438 1437 1436 1435 1434 1433 1432 1431 1429 1427
1428 1428 1428 1428 1429 1429 1430 1431 1432 1433 1433 1434 1435 1435 1435 1436 1437 1437 1438 1439 1439 1440 1439 1438 1438 1437 1437 1436 1435 1435 1434 1434 1433 1432 1431 1430 1429 1428 1426 1425 1424 1423 1421
1425 1425 1425 1425 1426 1426 1426 1427 1427 1429 1430 1430 1431 1431 1432 1432 1432 1433 1433 1434 1434 1434 1434 1433 1432 1432 1431 1431 1430 1429 1428 1428 1427 1426 1425 1424 1423 1422 1420 1419 1418 1416 1414
1423 1423 1423 1423 1423 1423 1424 1424 1425 1424 1425 1425 1427 1427 1428 1428 1428 1428 1429 1429 1428 1428 1428 1428 1427 1427 1426 1425 1424 1424 1423 1422 1421 1420 1419 1418 1417 1415 1414 1412 1411 1410 1408
1421 1421 1421 1421 1421 1421 1422 1422 1422 1422 1422 1422 1422 1423 1424 1424 1424 1424 1424 1424 1423 1423 1423 1422 1422 1421 1420 1420 1419 1418 1417 1416 1415 1414 1413 1412 1410 1409 1408 1406 1405 1403 1402
1419 1419 1419 1419 1419 1419 1419 1419 1419 1419 1419 1419 1419 1419 1419 1419 1419 1419 1419 1419 1418 1418 1417 1417 1416 1415 1415 1414 1413 1412 1411 1410 1409 1408 1407 1405 1404 1403 1401 1400 1398 1396 1395
1417 1417 1417 1417 1417 1416 1416 1416 1416 1416 1416 1416 1416 1416 1416 1415 1415 1414 1414 1414 1413 1413 1412 1411 1411 1410 1409 1408 1407 1406 1405 1404 1403 1401 1400 1399 1397 1396 1394 1393 1391 1390 1388
1415 1415 1415 1415 1414 1414 1414 1414 1414 1413 1413 1413 1412 1412 1412 1412 1411 1410 1410 1409 1409 1408 1407 1406 1405 1404 1404 1403 1401 1400 1399 1398 1396 1395 1394 1392 1391 1389 1387 1386 1384 1382 1381
1414 1413 1413 1412 1412 1412 1411 1411 1411 1410 1410 1409 1409 1408 1408 1407 1406 1406 1405 1404 1404 1403 1402 1401 1400 1399 1398 1397 1396 1394 1393 1391 1390 1389 1387 1385 1383 1382 1380 1378 1376 1375 1373
1411 1411 1410 1409 1409 1408 1408 1408 1407 1407 1406 1406 1405 1404 1403 1403 1402 1401 1400 1399 1398 1397 1396 1395 1394 1393 1392 1391 1389 1388 1387 1385 1384 1382 1380 1379 1377 1375 1373 1371 1369 1368 1366
1409 1408 1407 1407 1406 1405 1405 1404 1404 1403 1402 1402 1401 1400 1399 1398 1397 1396 1395 1394 1393 1392 1391 1390 1388 1387 1386 1384 1383 1382 1380 1379 1378 1376 1374 1372 1370 1368 1366 1364 1362 1360 1359
1405 1405 1404 1403 1403 1402 1401 1400 1400 1399 1399 1398 1397 1396 1395 1394 1393 1392 1390 1389 1388 1387 1385 1384 1383 1382 1380 1378 1377 1375 1374 1372 1371 1369 1368 1366 1363 1361 1359 1357 1355 1354 1352